Location: Alvediston
(51.0078°N, 2.0364°W)
Time: 15:30:16
(UTC+00:00)

Cosmos 2227 Rocket - Pass Details

Date: 27 February 2020
Orbit: 839 x 845 km, 71.0° (Epoch: 27 March)

Event Time Altitude Azimuth Distance (km) Brightness Sun altitude
Rises 18:11:38 0° 331° (NNW) 3,407 5.7 -5.0°
Reaches altitude 10° 18:14:45 10° 347° (NNW) 2,471 4.7 -5.5°
Maximum altitude 18:18:56 21° 35° (NE) 1,826 3.6 -6.2°
Drops below altitude 10° 18:23:08 10° 83° (E) 2,466 3.9 -6.8°
Enters shadow 18:23:40 - 87° (E) 2,613 4.0 -6.9°
